Time,TemperatureF,DewpointF,PressureIn,WindDirection,WindDirectionDegrees,WindSpeedMPH,WindSpeedGustMPH,Humidity,HourlyPrecipIn,Conditions,Clouds,dailyrainin,SoftwareType,DateUTC
2013-06-15 00:01:00,56.9,53.0,29.80,NNW,338,0.0,0.0,87,0.00,,,0.00,WUHU216HW,2013-06-15 04:01:00,
2013-06-15 00:06:00,56.9,53.0,29.80,NNW,338,0.0,0.0,87,0.00,,,0.00,WUHU216HW,2013-06-15 04:06:00,
2013-06-15 00:29:00,56.3,52.8,29.81,NNW,338,0.0,0.0,88,0.00,,,0.00,WUHU216HW,2013-06-15 04:29:00,
2013-06-15 00:34:00,56.3,52.8,29.81,NNW,338,0.0,0.0,88,0.00,,,0.00,WUHU216HW,2013-06-15 04:34:00,
2013-06-15 00:59:00,56.2,52.7,29.82,NW,315,0.0,0.0,88,0.00,,,0.00,WUHU216HW,2013-06-15 04:59:00,
2013-06-15 01:04:00,56.2,52.7,29.82,NW,315,0.0,0.0,88,0.00,,,0.00,WUHU216HW,2013-06-15 05:04:00,
2013-06-15 01:29:00,56.0,52.5,29.82,NW,315,0.0,0.0,88,0.00,,,0.00,WUHU216HW,2013-06-15 05:29:00,
2013-06-15 01:34:00,56.0,52.5,29.82,NW,315,0.0,0.0,88,0.00,,,0.00,WUHU216HW,2013-06-15 05:34:00,
2013-06-15 01:59:00,56.2,52.7,29.83,NW,315,0.0,0.0,88,0.00,,,0.00,WUHU216HW,2013-06-15 05:59:00,
2013-06-15 02:04:00,56.2,52.7,29.83,NW,315,0.0,0.0,88,0.00,,,0.00,WUHU216HW,2013-06-15 06:04:00,
2013-06-15 02:29:00,55.1,51.6,29.83,NW,315,0.0,0.0,88,0.00,,,0.00,WUHU216HW,2013-06-15 06:29:00,
2013-06-15 02:34:00,55.1,51.6,29.83,NW,315,0.0,0.0,88,0.00,,,0.00,WUHU216HW,2013-06-15 06:34:00,
2013-06-15 02:59:00,54.4,51.2,29.83,NW,315,0.0,0.0,89,0.00,,,0.00,WUHU216HW,2013-06-15 06:59:00,
2013-06-15 03:04:00,54.4,51.2,29.83,NW,315,0.0,0.0,89,0.00,,,0.00,WUHU216HW,2013-06-15 07:04:00,
2013-06-15 08:59:00,66.6,52.7,29.95,SSW,203,1.1,1.1,61,0.00,,,0.00,WUHU216HW,2013-06-15 12:59:00,
2013-06-15 09:04:00,66.6,52.7,29.95,SSW,203,1.1,1.1,61,0.00,,,0.00,WUHU216HW,2013-06-15 13:04:00,
2013-06-15 09:09:00,66.6,52.7,29.95,SSW,203,1.1,1.1,61,0.00,,,0.00,WUHU216HW,2013-06-15 13:09:00,
2013-06-15 09:29:00,69.7,55.3,29.96,East,90,0.0,0.0,60,0.00,,,0.00,WUHU216HW,2013-06-15 13:29:00,
2013-06-15 09:34:00,69.7,55.3,29.96,East,90,0.0,0.0,60,0.00,,,0.00,WUHU216HW,2013-06-15 13:34:00,
2013-06-15 09:59:00,72.0,52.4,29.95,WSW,248,1.8,1.8,50,0.00,,,0.00,WUHU216HW,2013-06-15 13:59:00,
2013-06-15 10:04:00,72.0,52.4,29.95,WSW,248,1.8,1.8,50,0.00,,,0.00,WUHU216HW,2013-06-15 14:04:00,
2013-06-15 10:29:00,73.6,53.8,29.95,SE,135,0.4,0.4,50,0.00,,,0.00,WUHU216HW,2013-06-15 14:29:00,
2013-06-15 10:34:00,73.6,53.8,29.95,SE,135,0.4,0.4,50,0.00,,,0.00,WUHU216HW,2013-06-15 14:34:00,
2013-06-15 10:59:00,73.8,50.4,29.96,ENE,68,0.9,0.9,44,0.00,,,0.00,WUHU216HW,2013-06-15 14:59:00,
2013-06-15 11:04:00,73.8,50.4,29.96,ENE,68,0.9,0.9,44,0.00,,,0.00,WUHU216HW,2013-06-15 15:04:00,
2013-06-15 11:29:00,76.0,50.0,29.96,WSW,248,1.1,1.1,40,0.00,,,0.00,WUHU216HW,2013-06-15 15:29:00,
2013-06-15 11:34:00,76.0,50.0,29.96,WSW,248,1.1,1.1,40,0.00,,,0.00,WUHU216HW,2013-06-15 15:34:00,
2013-06-15 11:59:00,76.5,52.9,29.95,SE,135,1.1,1.1,44,0.00,,,0.00,WUHU216HW,2013-06-15 15:59:00,
2013-06-15 12:04:00,76.5,52.9,29.95,SE,135,1.1,1.1,44,0.00,,,0.00,WUHU216HW,2013-06-15 16:04:00,
2013-06-15 12:29:00,78.3,55.2,29.94,WSW,248,0.7,0.7,45,0.07,,,0.00,WUHU216HW,2013-06-15 16:29:00,
2013-06-15 12:34:00,78.3,55.2,29.94,WSW,248,0.7,0.7,45,0.07,,,0.00,WUHU216HW,2013-06-15 16:34:00,
2013-06-15 12:59:00,77.6,47.6,29.95,WSW,248,2.7,2.7,35,0.10,,,0.07,WUHU216HW,2013-06-15 16:59:00,
2013-06-15 13:04:00,77.6,47.6,29.95,WSW,248,2.7,2.7,35,0.10,,,0.07,WUHU216HW,2013-06-15 17:04:00,
2013-06-15 13:29:00,78.7,51.7,29.94,WSW,248,1.1,1.1,39,0.03,,,0.10,WUHU216HW,2013-06-15 17:29:00,
2013-06-15 13:34:00,78.7,51.7,29.94,WSW,248,1.1,1.1,39,0.03,,,0.10,WUHU216HW,2013-06-15 17:34:00,
2013-06-15 13:59:00,78.5,48.4,29.94,SW,225,0.4,0.4,35,0.00,,,0.10,WUHU216HW,2013-06-15 17:59:00,
2013-06-15 14:04:00,78.5,48.4,29.94,SW,225,0.4,0.4,35,0.00,,,0.10,WUHU216HW,2013-06-15 18:04:00,
2013-06-15 14:29:00,79.6,50.9,29.93,WSW,248,0.7,0.7,37,0.00,,,0.10,WUHU216HW,2013-06-15 18:29:00,
2013-06-15 14:34:00,79.6,50.9,29.93,WSW,248,0.7,0.7,37,0.00,,,0.10,WUHU216HW,2013-06-15 18:34:00,
2013-06-15 14:59:00,80.1,49.9,29.92,SSE,158,1.6,1.6,35,0.00,,,0.10,WUHU216HW,2013-06-15 18:59:00,
2013-06-15 15:04:00,80.1,49.9,29.92,SSE,158,1.6,1.6,35,0.00,,,0.10,WUHU216HW,2013-06-15 19:04:00,
2013-06-15 15:29:00,80.3,49.2,29.91,NNE,23,1.1,1.1,34,0.00,,,0.10,WUHU216HW,2013-06-15 19:29:00,
2013-06-15 15:34:00,80.3,49.2,29.91,NNE,23,1.1,1.1,34,0.00,,,0.10,WUHU216HW,2013-06-15 19:34:00,
2013-06-15 15:39:00,80.3,49.2,29.91,NNE,23,1.1,1.1,34,0.00,,,0.10,WUHU216HW,2013-06-15 19:39:00,
2013-06-15 15:59:00,81.4,48.6,29.91,WSW,248,1.3,1.3,32,0.00,,,0.10,WUHU216HW,2013-06-15 19:59:00,
2013-06-15 16:04:00,81.4,48.6,29.91,WSW,248,1.3,1.3,32,0.00,,,0.10,WUHU216HW,2013-06-15 20:04:00,
2013-06-15 16:29:00,80.8,45.5,29.91,SW,225,1.3,1.3,29,0.00,,,0.10,WUHU216HW,2013-06-15 20:29:00,
2013-06-15 16:34:00,80.8,45.5,29.91,SW,225,1.3,1.3,29,0.00,,,0.10,WUHU216HW,2013-06-15 20:34:00,
2013-06-15 16:59:00,80.3,46.1,29.91,SW,225,4.3,4.3,30,0.00,,,0.10,WUHU216HW,2013-06-15 20:59:00,
2013-06-15 17:04:00,80.3,46.1,29.91,SW,225,4.3,4.3,30,0.00,,,0.10,WUHU216HW,2013-06-15 21:04:00,
2013-06-15 17:29:00,78.7,46.3,29.90,South,180,0.9,0.9,32,0.00,,,0.10,WUHU216HW,2013-06-15 21:29:00,
2013-06-15 17:34:00,78.7,46.3,29.90,South,180,0.9,0.9,32,0.00,,,0.10,WUHU216HW,2013-06-15 21:34:00,
2013-06-15 17:59:00,77.8,47.8,29.91,North,0,0.7,0.7,35,0.00,,,0.10,WUHU216HW,2013-06-15 21:59:00,
2013-06-15 18:04:00,77.8,47.8,29.91,North,0,0.7,0.7,35,0.00,,,0.10,WUHU216HW,2013-06-15 22:04:00,
2013-06-15 18:29:00,76.9,48.5,29.91,NE,45,2.0,2.0,37,0.00,,,0.10,WUHU216HW,2013-06-15 22:29:00,
2013-06-15 18:34:00,76.9,48.5,29.91,NE,45,2.0,2.0,37,0.00,,,0.10,WUHU216HW,2013-06-15 22:34:00,
2013-06-15 18:59:00,75.2,47.8,29.92,NNW,338,0.2,0.2,38,0.00,,,0.10,WUHU216HW,2013-06-15 22:59:00,
2013-06-15 19:04:00,75.2,47.8,29.92,NNW,338,0.2,0.2,38,0.00,,,0.10,WUHU216HW,2013-06-15 23:04:00,
2013-06-15 19:29:00,73.3,48.7,29.93,NW,315,0.0,0.0,42,0.00,,,0.10,WUHU216HW,2013-06-15 23:29:00,
2013-06-15 19:34:00,73.3,48.7,29.93,NW,315,0.0,0.0,42,0.00,,,0.10,WUHU216HW,2013-06-15 23:34:00,
2013-06-15 19:59:00,69.8,49.2,29.93,NW,315,0.0,0.0,48,0.00,,,0.10,WUHU216HW,2013-06-15 23:59:00,
2013-06-15 20:04:00,69.8,49.2,29.93,NW,315,0.0,0.0,48,0.00,,,0.10,WUHU216HW,2013-06-16 00:04:00,
2013-06-15 20:29:00,67.0,48.3,29.93,NW,315,0.0,0.0,51,0.00,,,0.10,WUHU216HW,2013-06-16 00:29:00,
2013-06-15 20:34:00,67.0,48.3,29.93,NW,315,0.0,0.0,51,0.00,,,0.10,WUHU216HW,2013-06-16 00:34:00,
2013-06-15 20:59:00,64.8,49.2,29.94,NW,315,0.0,0.0,57,0.00,,,0.10,WUHU216HW,2013-06-16 00:59:00,
2013-06-15 21:04:00,64.8,49.2,29.94,NW,315,0.0,0.0,57,0.00,,,0.10,WUHU216HW,2013-06-16 01:04:00,
2013-06-15 21:29:00,63.0,49.0,29.95,NW,315,0.0,0.0,60,0.00,,,0.10,WUHU216HW,2013-06-16 01:29:00,
2013-06-15 21:34:00,63.0,49.0,29.95,NW,315,0.0,0.0,60,0.00,,,0.10,WUHU216HW,2013-06-16 01:34:00,
2013-06-15 21:59:00,61.2,49.4,29.96,NW,315,0.0,0.0,65,0.00,,,0.10,WUHU216HW,2013-06-16 01:59:00,
2013-06-15 22:04:00,61.2,49.4,29.96,NW,315,0.0,0.0,65,0.00,,,0.10,WUHU216HW,2013-06-16 02:04:00,
2013-06-15 22:29:00,59.9,49.0,29.96,NW,315,0.0,0.0,67,0.00,,,0.10,WUHU216HW,2013-06-16 02:29:00,
2013-06-15 22:34:00,59.9,49.0,29.96,NW,315,0.0,0.0,67,0.00,,,0.10,WUHU216HW,2013-06-16 02:34:00,
2013-06-15 22:59:00,58.7,49.0,29.96,NW,315,0.0,0.0,70,0.00,,,0.10,WUHU216HW,2013-06-16 02:59:00,
2013-06-15 23:04:00,58.7,49.0,29.96,NW,315,0.0,0.0,70,0.00,,,0.10,WUHU216HW,2013-06-16 03:04:00,
2013-06-15 23:29:00,58.0,49.0,29.97,NW,315,0.0,0.0,72,0.00,,,0.10,WUHU216HW,2013-06-16 03:29:00,
2013-06-15 23:34:00,58.0,49.0,29.97,NW,315,0.0,0.0,72,0.00,,,0.10,WUHU216HW,2013-06-16 03:34:00,
2013-06-15 23:59:00,57.2,49.0,29.97,NW,315,0.0,0.0,74,0.00,,,0.00,WUHU216HW,2013-06-16 03:59:00,